This is the latest recevied weather packets stored in our database for station/object WD8INF-9. If no packets are shown the sender has not sent any weather packets the latest 10 day(s).
| Time | Temp. | Humidity | Pressure | Rain* | Wind** | Luminosity | Snow |
|---|---|---|---|---|---|---|---|
| 1778162569 | 17.22° C | - | 1013.7 hPa | 0 mm | - | - | - |
| 1778162269 | 17.78° C | - | 1013.8 hPa | 0 mm | - | - | - |
| 1778161969 | 15° C | - | 1013.7 hPa | 0 mm | - | - | - |
| 1778161367 | 16.67° C | - | 1013.7 hPa | 0 mm | - | - | - |
| 1778161066 | 16.67° C | - | 1013.6 hPa | 0 mm | - | - | - |
| 1778160766 | 15.56° C | - | 1013.8 hPa | 0 mm | - | - | - |
| 1778160466 | 16.67° C | - | 1013.9 hPa | 0 mm | - | - | - |
| 1778160166 | 17.22° C | - | 1013.9 hPa | 0 mm | - | - | - |
| 1778159865 | 15.56° C | - | 1013.7 hPa | 0 mm | - | - | - |
| 1778159565 | 15.56° C | - | 1013.9 hPa | 0 mm | - | - | - |
| 1778159265 | 15.56° C | - | 1013.5 hPa | 0 mm | - | - | - |
| 1778158966 | 15.56° C | - | 1013.9 hPa | 0 mm | - | - | - |
| 1778158664 | 16.11° C | - | 1013.5 hPa | 0 mm | - | - | - |
| 1778158364 | 15° C | - | 1013.7 hPa | 0 mm | - | - | - |
| 1778158064 | 15.56° C | - | 1013.7 hPa | 0 mm | - | - | - |
| 1778157763 | 16.11° C | - | 1013.8 hPa | 0 mm | - | - | - |
| 1778157463 | 16.11° C | - | 1014 hPa | 0 mm | - | - | - |
| 1778157163 | 16.11° C | - | 1013.8 hPa | 0 mm | - | - | - |
| 1778156863 | 15° C | - | 1014.1 hPa | 0 mm | - | - | - |
| 1778156563 | 15° C | - | 1013.8 hPa | 0 mm | - | - | - |
| 1778156262 | 15° C | - | 1014 hPa | 0 mm | - | - | - |
| 1778155962 | 14.44° C | - | 1013.9 hPa | 0 mm | - | - | - |
| 1778155661 | 13.89° C | - | 1013.9 hPa | 0 mm | - | - | - |
| 1778155361 | 12.78° C | - | 1013.8 hPa | 0 mm | - | - | - |
| 1778155061 | 11.67° C | - | 1014 hPa | 0 mm | - | - | - |
* Rain since midnight (hover to see other rain measurements)
** Current wind speed in m/s (hover to see current wind gust speed)